Terminal Aerodrome Forecast
Issued by NWS Twin Cities, MN

Home | Current Version | Previous Version | Graphics & Text | Print | Product List | Glossary On
Versions: 1 2 3 4 5 6 7 8 9 10 11 12 13 14 15 16 17 18 19 20 21 22 23 24 25 26 27 28 29
000
FTUS43 KMPX 181600 AAC
TAFMSP
TAF AMD
KMSP 181656Z 1817/1918 35004KT P6SM FEW025
     FM190000 17004KT P6SM FEW250
     FM191000 18004KT P6SM SCT100 BKN120=

USA.gov is the U.S. government's official web portal to all federal, state and local government web resources and services.